"Pseudo-MPEC" for A10kZLv

Created 2020 Mar 31 9:07:03 UT using Find_Orb

Click here for an explanation of pseudo-MPECs

 
 Astrometry: 
     A10kZLv  C2019 05 27E+*#k,OuQ(rV#0Do#sXA]W*Ux$afMySL^7)OCX$N:w^qa\AdUy_mF51
     A10kZLv  C2019 05 27VDH/H0OPc\Gs`wpUDYR]*m?K1OKKB[oDDq.tGqV$s*dJ\%yo2\%!F51
     A10kZLv  C2019 05 27KkPPL2eqV\%*^Q;JEZtEyD2efk\762h,_Tq00-5oEf0ajUAdT8y$F51
     A10kZLv  C2019 05 27)YjNo'(IJA#uQh]@](aGjQVep0W4c[qwKl-N0CI4V!u9*\:N3pm)F51
     A10kZLv  C2019 08 01ZKqx,CO2CAs;J)^sq#NMXIfb+Zjr*^V?cM=IJl5Gg.c7l!ecX977F51
     A10kZLv  C2019 08 01WS!8Dsv\);E12H[$^)FFF78Go9=eppfbn:_*CTOTgRjE6Mk\s]utF51
     A10kZLv  C2019 08 209QcjqN:BoWj/pu,J$;7V+]FX()+eX%Y/ZBS+pG'e$rNtG5EKP6\5F51
     A10kZLv  C2019 08 20M(m0eROC1.,EP9Q!a2@e*o`+*_W4O9I#up3aHb^YKk%!*0VEBw1'F51
     A10kZLv  C2019 08 20lK2PdCd9632))s+F1qVwL;-)`*ZKeLvwV`A@T1-pCjTpuT(9%87+F51
     A10kZLv  C2019 08 20Sxhn\H?GtE*V@$0Q1[O!iEvC'jHt[SM3BApja=?W#36(xB9YKoHJF51
     A10kZLv  C2019 08 20EER5mLJS^vuTA6K:mB=ZXEXT9k%.mPS8\C+.m`;+\j_#eqM-5b?4F51
     A10kZLv  C2020 02 05ttMfy[3)iLe21MYqie.3$e:i]APr]p,Xj4xCo1M8]8JI@^@/I(BMF51
     A10kZLv  C2020 02 05n6qQ2G#Iqc'awY_GEf_\$d+xH-K.*RtI-,KdVB(7^YKwZpctRA^^F51
     A10kZLv  C2020 02 05@`'1L1c),g6llUh7nLp?#+5f%A.=Y(#w/hJA+S'rCsRP-iD3:c7EF51
     A10kZLv  C2020 02 05R#Jseg-mD*#2.x=;%j_R.k(;[LOuiftACDo/e/`YAoW806(Iik;KF51
     A10kZLv  C2020 03 21.62221416 29 00.75 -19 39 37.3    ~3LK7 19.36cVNEOCPT05
     A10kZLv  C2020 03 21.62559616 29 00.69 -19 39 37.7    ~3LK7 19.12cVNEOCPT05
     A10kZLv  C2020 03 21.63373816 29 00.48 -19 39 36.6    ~3LK7 19.47cVNEOCPT05
     A10kZLv  C2020 03 21.64023616 29 00.50 -19 39 36.4    ~3LK7 19.53cVNEOCPT05
     A10kZLv  C2020 03 22,PR5%AUy=SwfbbBq(RlQ/*3?iXZndFTiBcB9?%X[!QR]]x5F)+FpF51
     A10kZLv  C2020 03 22JiN_^lI^mi?4/xmDyxw7[uL'X1(N5qVtU#xn#EtA4nVwF#BFUs]jF51
     A10kZLv  C2020 03 22HcK'NS/cK@8ZCjN5#B#qRUq/QqdJTTrqYSy3=c87UrZE!Z4XVk)bF51
     A10kZLv  C2020 03 22Fqwr5!CNx#[Qjx:(iITIHU^\3:(W(q(Zi[o;/GrEybwmjg=E6eTNF51
     A10kZLv KC2020 03 23Bi*82/(lx(nko46nw4bAUY@Exut==^U=KeE==Fyek[P[O'Ik#$$CI47
     A10kZLv KC2020 03 23J#D#5akXg0W^M#^9s)tJd#+hobls,pPJn.:/J+g7;EOhg[vpU5Y_I47
     A10kZLv KC2020 03 23#(HIUTt`XhnrRrW?cr8;uPqv,Ke?0B!Xl0ffpy.dK`6)ZyUx8JM!I47
     A10kZLv KC2020 03 23Dnao4ZZV[8HEYhXQZ)7q2KpB$blQZmv).E=h%sIrvoQe/oylapY2Q11
     A10kZLv KC2020 03 23A!6)mhd;GIcd8C7;;3dl,OUU)!yZ)t[sX);BxYCGw-9@DU52s[#jQ11
     A10kZLv KC2020 03 23s,kj_sZ;l8Db4BAWDrd7lbF'N@lC,@Ox0hX]Hs)`kN:g+8_IPRfvQ11
     A10kZLv KC2020 03 243:pPa96'Bhk1F(3@eN81RxbE71OCQ%1lvaSiw42@%wfad,L8D];QL01
     A10kZLv KC2020 03 245#PMh%J@*[fB?ptS\n23ZMwgAstrometryy6e7+blSPKXJV9666/L01
     A10kZLv KC2020 03 24`dvX(/8Ua%/wE\aD.4N3lSi+CZASt_Iq=,Vag5JZ$v_x^sMq?;JIL01
     A10kZLv KC2020 03 24OFVI+Z@#f!Y'BH,;)0;YonqBAha!]f$2f56KoVN51aT0om3dL\XCL01
     A10kZLv pC2020 03 24%Se@.#,3irH%xq6L`G4UxY$klCq(Un-/3N=64*-,__Wu1=wytRwSL01
     A10kZLv KC2020 03 241hET9Mc-5LA=DWQN78[ww8rc0Ib*V:]g\(uv/^)xe$;/6G]M9rJkI47
     A10kZLv KC2020 03 24ewTuFp%V0bCmDrC-1,v+!+ABn;s-J;!J1Z'vB$C@wfMbl3^QiiLEI47
     A10kZLv 3C2020 03 241u;nH,r=aBOu#Kq(n7Y4?AZ,%2OH8u336:'9S0P_7Sdc52nFsi[ZW88
     A10kZLv 3C2020 03 24nG/p_^^sORTBR.RH^l:kV#'CWOCQ?$1gKt^e3B^bt8^6)^\CPmF1W88
     A10kZLv KC2020 03 246W`Y.%8sm=H+([Mfw!Y[[YKdr.aHUa3k?s$'y!FZ#Q^X)53pnuu3I47
     A10kZLv 3C2020 03 24m]to86\]UVb\/$7U8:`UR8gQT7y)gfQJ;cQ]F,9bBgZWYNq4'5n@W88
     A10kZLv KC2020 03 24Z`sM`ow!o:R,;8EWZ!xn2XC)FJrMr8aX2%_LN7Mx+Y*q*X++V4wGE94
     A10kZLv KC2020 03 245G@s2#,x]kJ1\w/h0nh'xFg)#A!k#Z?wv8/Db7j2HLd2:t]V$)CaE94
     A10kZLv KC2020 03 24`d=,(@fG==9q^h.(!0.eBI9`oZC8v*V9j^Y0_PMyVx7y,?=M?9PXE94
     A10kZLv KC2020 03 24p6(*Z@w?b5RLO(TN9R?8_^lVe1opC?`%JtPlQJTfV';_[CR3bjL\E94
     A10kZLv KC2020 03 24(@GRjDqP$AK$LqUPLA,-7EB4w/QA\QWKXp;#Bl[=q_Ch:sn5ULKwE94
     A10kZLv KC2020 03 24;#-lDCwaIZ27redacted;.drK[Wo$KhLaH(gNY(Q@NucLQ%OfkG#E94
     A10kZLv KC2020 03 24y2P$Gas%3RNd4;8mxC4L?QRJ0[6!)n;x%_RBLHN3b%UnIC@BuMF+E94
     A10kZLv KC2020 03 24.]ak+;`)t#BMEouMIb5eBD3EhTA='giJc[/%A8yD[CPVpy_?`*R_E94
     A10kZLv KC2020 03 24L`CAnE1rcl(Bg@A2U/_XZ_PsXkWdP)%WFKLWwi#%1k,WU.@o@.qNE94
     A10kZLv KC2020 03 24fb+*8i/Io0NuALdE+uj_\GojAd1vr\J8DUB6D,`nphi7:T6)_e'TE94
     A10kZLv KC2020 03 240IruEjWo(U$%EIe_=[N`rBn/Bxi\=qjM@cH?SY46h8o4;ZM2o!sgE94
     A10kZLv KC2020 03 24xgP@?@V]kGde0g*=rSi0HW\*8Q`es^S#XLw5click/h\NSFhere;E94
     A10kZLv KC2020 03 247c;/=^@?;VF8-`$Zx1^V][EG$[u1'jIk+XbjR[_R7_kyEI3CZqT=Q11
     A10kZLv KC2020 03 24-S159Bp)E;i$#YV9c*$.]#Wq!kB/.)bM:Q@7HJ6c9:ALKZDhvSM[Q11
     A10kZLv KC2020 03 24DIj,SR3G*T8,XOoKijwnJu\CxXyXeL9cu)JN5]P?khKI=uNae%UjQ11
     A10kZLv  C2020 03 25!l3S$21D8$-3-Wvol`ZAdRpl9\rHLsn9Ls%7q=;X*jFx_lny'j=YK74
     A10kZLv KC2020 03 25`0LB(tHUi;[@Lg7gEBC5ButijNp4k)tUUq7Oslr5'h/SUGt!C=j?K74
     A10kZLv KC2020 03 25m?.7m$K8-Enp_lj,%3ahgiaq2Yb,L':cNshfZ34w*tCt;Smu4sevK74
     A10kZLv KC2020 03 25DQ/,]5gRRoK@6+-$\7x%eXArCn:3jadyGhiT@8%:NdHSG9+L%GQDX02
     A10kZLv KC2020 03 25ky^a2Ow($SqG-k_f,4P.AQGLXD%XhJW'2j0hA8ltc9[/SGoAQ#b]X02
     A10kZLv KC2020 03 26Jh;Qg@for/Uk@6WdFE+_lY_n18o3G)u^.y_+sH:dBQu-wA86gLmL850
     A10kZLv KC2020 03 26@$?6_R7h(uPFN5+G7E2Zv-gN(Yo+1vjoOG-=)(n)0]4WOZic0Q*8850
     A10kZLv KC2020 03 263c1)IBY)2NyaO,YYh'xQUmeyVOP`hc$yF'uY0.-/I7;(J]cf[(=6850
     A10kZLv 2C2020 03 26O(i`Xs]$S]_N=o6$$`osB?V`,7h#(q`KWrE2r\6%?vS6EDo$^dwZF65
     A10kZLv 2C2020 03 26*.@jEbm'Z-Sk%R#Q4nVSDdDib9mF#E-SGQRcEZC,gi2?l=-`N`^lF65
     A10kZLv 2C2020 03 26*NTwuT!@Zbs[:LE9`BE'11$O-WG#I,+W)1*!EmN[aTZ:Euh1OF:6F65
     A10kZLv 1C2020 03 27dq^AtD+Map2b;YjP@E0t9gsiU*!DU?omai7At(j*D`c5j]Z!WMhQQ62
     A10kZLv 1C2020 03 27w[[xZj=O]XsNTml\8Q[R:pBR*w/1e:NPcn0S29jD2xd5r;JJ0tlbQ62
     A10kZLv 'C2020 03 27XjKi/f=tY`?I+RA]2,L^!v.1pTMNxyb?5h[;O#4SbfNyR4L66xGMQ62
     A10kZLv 'C2020 03 27-O!+NsGmci(Y,Cb/W;KxjJ*$PAnSspE[2s/3@r#H+cEmLV/wTSG9Q62
     A10kZLv 'C2020 03 271RZZ+SPeZuFHcYh56j@y54Kkw*$9;VMOaZ%:T:VDNDY4r#4Co1ooQ62
     A10kZLv 'C2020 03 27$bdZ5:uo?UdN5X*Y,)9%q9wu'tDlt9axUK2je-9_b#gx\KWBTJGcQ62
     A10kZLv 'C2020 03 27D!D?E6m8Qlm#X7B@P[(THZjtlf(4.Z2/$+.oyFFEm#W*Fw['Zi*:Q62
     A10kZLv 'C2020 03 273$`y,Wgo7T$o9gl3?7[BoehFJC.A02[dr8+AO_Fyy3=k\][Y,!!RQ62
     A10kZLv KC2020 03 28UKYyYT/E5srN%9W90qN=[dpC`qElMJK^Y5]Ic/QB#.:?2wGOXe)NI47
     A10kZLv KC2020 03 28cib['fa-$tvbC9Kt5N]PEVbBWkTvt(_=\Gxc49pl4mT1`Z`v.wLSI47
     A10kZLv KC2020 03 30ShOdY)`-f$HG25p\(^)6ojpUfY,l2_Zb#explanationmET1XZe4I47
     A10kZLv KC2020 03 30FU*\7hfM80xGPWTBCmV_q#+5WS5Pr#v'bYPyFBcDj9!D5x7k^bniI47
     A10kZLv KC2020 03 30Q%+*n\Wq2^YE#dxI`aGPTNi@4^(\'Za3/Iu[5Z:57X3:?OaI)cxMH36
     A10kZLv KC2020 03 30c;x)Z9yI?N^/bxDy1W9*,-j=_='W2)X02l$)E'te16=U6N3)2s^tH36
     A10kZLv KC2020 03 30c!YZ\7meIWRo[5;7i'I%E$oMky:e74(8G=O8dnauFW15LMM;Uv@TH36

Station data:
(850) Cordell-Lorenz Observatory, Sewanee  (N35.204094 W85.919800)
   US/Tennessee.  Observer D. T. Durig. 0.3-m f/5.0 Schmidt-Cassegrain + CCD.
(E94) Gisborne (Possum Observatory)  (S38.629922 E177.883310)  New Zealand.
(F51) Pan-STARRS 1, Haleakala  (N20.707235 W156.255910)  US/Hawaii.
   Observers N. Primak, A. Schultz, S. Watters, J. Thiel, T. Goggia. Measurer
   PS1 Science Consortium. 1.8-m Ritchey-Chrétien + CCD.
(F65) Haleakala-Faulkes Telescope North  (N20.707094 W156.257600)  US/Hawaii.
   2.0-m Faulkes Telescope North.
(H36) Sandlot Observatory, Scranton  (N38.797693 W95.706400)  US/Kansas.
   Observer G. Hug. 0.56-m reflector + CCD.
(I47) Pierre Auger Observatory, Malargüe  (S35.495442 W69.449700)  Argentina.
(K74) Muensterschwarzach Observatory, Schwarzach  (N49.805279 E10.236400)
   Germany.
(L01) Višnjan Observatory, Tičan  (N45.290900 E13.749300)  Croatia.
   Observers K. Korlević, E. Pettarin. Measurer E. Pettarin. 1.0-m f/2.9
   reflector + CCD.
(Q11) Shinshiro  (N34.984299 E137.520690)  Japan.
(Q62) iTelescope Observatory, Siding Spring  (S31.273289 E149.064420)
   Australia/NSW. 0.50-m f/6.8 astrograph + CCD + focal reducer, 0.70-m f/6.6
   astrograph + CCD.
(T05) ATLAS-HKO, Haleakala  (N20.707573 W156.257010)  US/Hawaii.  Observers
   L. Denneau, A. Heinze, H. Weiland, J. Tonry, H. Flewelling, A.
   Fitzsimmons, D. Young, B. Stalder. Measurers L. Denneau, A. Heinze, J.
   Tonry. 0.5-m f/2.0 Schmidt + CCD.
(W88) Slooh.com Chile Observatory, La Dehesa  (S33.269128 W70.534300)  Chile.
   0.35-m f/11 Schmidt-Cassegrain + CCD.
(X02) Telescope Live, El Sauce  (S30.470668 W70.764830)  Chile.

Orbital elements:  A10kZLv
   Perihelion 2022 Jul 16.773695 +/- 0.822 TT = 18:34:07 (JD 2459777.273695)
Epoch 2020 Mar 30.0 TT = JDT 2458938.5   Sa: 0.0667           AutoNEOCP
q   8.81681880 +/- 0.01             (J2000 ecliptic)
H    9.0  G 0.15                    Peri.   48.37089 +/- 0.10
                                    Node   250.24870 +/- 0.0009
e   1.0015457 +/- 0.0018            Incl.  163.57313 +/- 0.0036
From 81 observations 2019 May 27-2020 Mar. 30; mean residual 0".37
Residuals in arcseconds: 
190527 F51  .03-  .13-    200323 Q11  .10-  .08+    200324 Q11  .25+  .48+    
190527 F51  .07-  .15-    200323 Q11  .15+  .23+    200325 K74  .68-  .49+    
190527 F51  .05-  .14-    200324 L01  .19+  .62+    200325 K74  .85-  .35+    
190527 F51  .08+  .12-    200324 L01  .01+  .48+    200325 K74  .86-  .41+    
190801 F51  .07-  .17+    200324 L01  .73-  .55+    200325 X02  .42-  .45-    
190801 F51  .03-  .24+    200324 L01  .31-  .40-    200325 X02  .09+  .20-    
190820 F51  .07+  .06+    200324 L01  .21-  .37+    200326 850  .16+  .72+    
190820 F51  .09+  .06+    200324 I47  .58+  .16+    200326 850  1.1-  .40+    
190820 F51  .10+  .08+    200324 I47  .18+  .16-    200326 850  .48+  .42-    
190820 F51  .06+  .08+    200324 W88  .28-  .14-    200326 F65  .03-  .17+    
190820 F51  .02+  .08+    200324 W88  .20+  .21-    200326 F65  .22+  .21-    
200205 F51  .03+  .16-    200324 I47  .11+  .10-    200326 F65  .58+  .58-    
200205 F51  .08-  .15-    200324 W88  .30-  .08+    200327 Q62  .19-  .25-    
200205 F51  .02+  .11-    200324 E94  .59-  .15+    200327 Q62  .16+  .11-    
